Location: End
(50.0621°N, 11.0737°E)
Time: 14:32:24
(UTC+00:00)

Daily predictions for brighter satellites

Satellite Brightness Start Highest point End
(mag) Time Altitude Azimuth Time Altitude Azimuth Time Altitude Azimuth
Cosmos 2227 4.5 16:17:34 10° S 16:22:59 52° ESE 16:28:30 10° NE
Cosmos 1536 Rocket 3.6 16:19:21 10° S 16:23:43 81° E 16:28:10 10° NNE
COSMO-SKYMED 1 4.0 16:21:29 10° NE 16:24:31 18° E 16:27:32 10° SE
Cosmos 2227 Rocket 3.5 16:20:44 10° WSW 16:25:55 35° NW 16:31:07 10° NNE
TIMED 4.5 16:21:47 10° NNW 16:26:09 71° ENE 16:30:30 10° SSE
ATLAS 2AS CENTAUR R/B 3.2 16:21:06 10° SW 16:29:05 78° NW 16:36:54 10° NE
Cosmos 1634 Rocket 4.0 16:24:48 10° N 16:31:04 75° E 16:37:20 10° SSE
Cosmos 1844 Rocket 4.2 16:30:42 10° SE 16:34:00 16° E 16:37:19 10° ENE
Cosmos 1025 Rocket 3.9 16:30:32 10° SSW 16:34:46 53° WNW 16:39:04 10° N
CZ-2C R/B 3.8 16:30:53 10° SE 16:35:39 34° ENE 16:40:40 10° N
H-2A R/B 2.6 16:33:27 10° S 16:37:29 78° WSW 16:41:42 10° NNW
Okean-O 3.9 16:34:21 10° ESE 16:37:37 21° ENE 16:40:54 10° NNE
H-2A R/B 3.1 16:34:54 10° ESE 16:38:43 22° ENE 16:42:36 10° N
CZ-4B R/B 2.7 16:36:14 10° NE 16:38:55 21° E 16:41:32 10° SE
Okean O Rocket 1.6 16:35:53 10° SSE 16:40:20 78° ENE 16:44:47 10° NNW
Cosmos 773 Rocket 3.9 16:35:48 10° NNW 16:40:59 71° ENE 16:46:06 10° SSE
SeaSat 1 3.7 16:36:30 10° NNE 16:41:01 37° NW 16:45:31 10° WSW
YAOGAN 6 4.2 16:38:54 10° SSW 16:42:15 39° W 16:45:40 10° NNW
SMAP 3.3 16:37:42 10° S 16:42:21 79° WSW 16:47:03 10° NNW
Cosmos 1626 2.1 16:39:26 10° S 16:43:07 88° E 16:46:51 10° N
CZ-4B R/B 3.4 16:38:51 10° SSE 16:44:24 86° WSW 16:50:05 10° NNW
SL-24 R/B 4.2 16:40:35 10° SSE 16:44:55 87° WSW 16:49:38 10° NNW
Aureole 2 Rocket 4.2 16:46:38 10° ESE 16:47:46 12° E 16:48:02 12° E
AQUARIUS 4.4 16:44:48 10° S 16:49:17 77° WSW 16:53:49 10° NNW
Cosmos 1603 4.4 16:44:26 10° NW 16:50:04 62° WSW 16:55:43 10° SSE
Cosmos 2297 Rocket 4.1 16:46:12 10° W 16:50:39 23° NW 16:55:07 10° NNE
Meteor 2-10 Rocket 3.9 16:45:20 10° N 16:50:41 45° ENE 16:55:48 10° SE
OPS 8737 4.3 16:52:46 10° NW 16:55:49 75° NE 16:59:43 10° SE
Cosmos 1606 Rocket 3.5 16:51:36 10° N 16:56:01 78° E 17:00:25 10° SSE
CZ-2D R/B 3.6 16:53:25 10° SE 16:57:04 43° ENE 17:00:45 10° N
H-2A R/B 2.1 16:53:02 10° NNE 16:57:33 86° ESE 17:01:56 10° SSW
USA 234 3.7 16:52:59 12° ENE 16:58:47 49° N 17:05:04 10° WNW
YAOGAN 1 3.4 16:56:06 10° SE 16:59:48 29° ENE 17:03:32 10° N
Cosmos 1892 Rocket 3.9 16:56:06 10° SSE 17:00:11 42° E 17:04:16 10° NNE
CZ-4C R/B 3.9 16:58:24 10° N 17:01:26 45° WNW 17:04:27 10° SW
ATLAS 5 CENTAUR R/B 1.5 16:57:54 10° SW 17:01:58 88° NW 17:06:05 13° NE
FengYun 1-2 T 4.5 16:56:25 10° S 17:01:59 76° WSW 17:07:38 10° NNW
SL-14 R/B 3.5 17:01:47 10° SSW 17:05:37 70° W 17:09:33 10° N
Helios 1A Rocket 3.9 17:02:13 10° ESE 17:05:40 26° ENE 17:09:08 10° N
MOS 1 Rocket 3.7 17:02:56 10° NNE 17:06:54 34° E 17:10:48 10° SSE
RESURS DK-1 3.2 17:03:24 10° SW 17:07:25 49° NW 17:11:28 10° NNE
ATLAS 3B R/B 4.3 17:01:34 10° NW 17:07:57 40° WSW 17:14:34 10° S
Cosmos 2228 3.3 17:03:44 10° NNW 17:07:59 72° W 17:12:15 10° S
NOSS 7 (E) 4.4 17:06:42 10° SW 17:10:16 72° NW 17:12:25 18° NE
SKYMED 2 3.7 17:08:39 10° NNE 17:12:54 50° E 17:17:07 10° S
Cosmos 2180 Rocket 4.5 17:06:53 10° N 17:13:18 78° E 17:19:43 10° SSE
Meteor 2-5 Rocket 3.9 17:09:03 10° SSW 17:14:37 74° WNW 17:20:10 10° N
Cosmos 1538 Rocket 3.9 17:09:28 10° NNW 17:14:41 78° ENE 17:19:51 10° SSE
Aureole 3 3.7 17:11:34 10° N 17:14:54 30° ENE 17:17:45 10° SE
CZ-4C R/B 3.1 17:10:35 10° WSW 17:15:38 43° NNW 17:21:18 12° NE
CZ-3B R/B 1.5 17:14:31 10° WNW 17:16:45 59° NNE 17:20:09 17° ESE
SJ 16-02 2.3 17:13:48 10° SSE 17:17:30 27° E 17:18:57 22° ENE
Nadezhda 4 Rocket 4.2 17:13:01 10° SSE 17:18:55 46° E 17:24:48 10° NNE
Cosmos 1777 Rocket 4.0 17:15:31 10° S 17:20:44 68° ESE 17:26:00 10° NNE
Cosmos 2263 Rocket 2.7 17:17:09 10° SW 17:22:47 62° WNW 17:28:25 10° NNE
Cosmos 1455 2.4 17:21:50 10° N 17:25:30 44° ENE 17:29:11 10° SSE
Cosmos 2058 Rocket 3.0 17:22:56 10° N 17:27:27 82° ENE 17:31:58 10° SSE
COSMOS 2406 4.2 17:26:27 10° NNW 17:31:19 27° NE 17:32:42 24° ENE
X-37B 2.8 17:31:04 10° S 17:32:55 15° SSE 17:33:14 14° SSE
Meteor 2-13 Rocket 4.4 17:31:22 10° S 17:37:20 59° E 17:43:22 10° NNE
ARGOS 3.3 17:33:00 10° SE 17:38:07 47° ENE 17:43:16 10° N
Lacrosse 5 1.9 17:36:21 10° WNW 17:41:27 83° SW 17:45:00 20° SE
NOSS 3-1 (C) 4.1 17:34:36 10° NW 17:41:36 56° NE 17:47:11 21° ESE
CREW DRAGON DEMO-1 DEB 2.5 17:38:42 10° WNW 17:41:37 85° S 17:41:52 71° ESE
Okean 1-7 Rocket 3.5 17:37:10 10° S 17:41:40 73° E 17:46:16 10° NNE
ERS-2 2.0 17:42:03 31° NNE 17:43:36 63° ESE 17:47:11 10° S
ISS -2.4 17:42:17 10° SSW 17:45:00 26° SSE 17:45:00 26° SSE
CZ-2C R/B 3.6 17:45:49 28° ESE 17:45:49 28° ESE 17:49:58 10° SSE
Cosmos 1939 Rocket 4.4 17:41:29 10° SSW 17:45:23 40° W 17:49:16 10° NNW
PSLV R/B 4.0 17:43:31 23° NNE 17:45:57 57° ESE 17:50:05 10° S
CSL-04 Debris 4.1 17:42:55 10° SE 17:48:11 58° ENE 17:53:29 10° N
Meteor 1-24 Rocket 4.5 17:43:40 10° SSW 17:48:50 49° WNW 17:54:00 10° N
COSMOS 2455 2.8 17:44:06 10° SSW 17:50:08 82° ESE 17:54:02 23° NE
Cosmos 1626 Rocket 3.6 17:48:40 10° S 17:52:54 51° E 17:54:00 41° NE
Cosmos 1833 Rocket 3.5 17:49:34 10° NNW 17:54:32 31° NE 17:54:41 31° NE
Cosmos 1844 3.8 17:49:38 10° S 17:55:05 51° ESE 17:57:10 34° ENE
Cosmos 2026 Rocket 4.2 17:50:21 10° SSE 17:56:01 42° E 18:01:48 10° NNE
Cosmos 2082 Rocket 3.5 17:51:52 10° NNW 17:55:56 22° NNE 17:55:56 22° NNE
USA 281 4.3 17:56:41 23° NE 17:57:00 23° NE 18:01:56 10° N
CZ-4 R/B 1.6 17:53:29 10° S 17:57:34 71° WSW 18:01:38 10° NNW
USA 229 DEB 4.0 17:51:33 10° NW 17:58:34 54° NE 18:01:49 33° E
USA 229 4.0 17:51:40 10° NW 17:58:40 53° NE 18:01:52 33° E
COSMO-SKYMED 1 3.2 17:56:45 10° N 18:01:02 56° WNW 18:05:16 10° SSW
DMSP B5D1-3 4.5 18:01:31 28° NNE 18:04:10 60° ESE 18:09:12 10° S
USA 267 4.1 18:04:12 28° ESE 18:04:46 28° SE 18:10:16 10° S
SL-08 RB Rocket 3.8 18:05:16 52° NE 18:05:16 52° NE 18:09:22 10° N
CZ-4B R/B 3.4 18:08:14 10° N 18:11:09 29° WNW 18:14:04 10° SW
Okean-O 3.2 18:09:23 10° S 18:13:44 57° W 18:18:08 10° NNW
NOSS 3-1 (A) 4.1 18:07:07 10° NW 18:14:09 57° NE 18:16:57 39° E
CZ-2C R/B 4.3 18:10:21 10° SSW 18:15:23 44° W 18:20:44 10° NNW
Cosmos 923 Rocket 4.2 18:11:01 10° NNW 18:16:22 74° WSW 18:21:40 10° SSE
Cosmos 1844 Rocket 2.6 18:11:23 10° SSW 18:17:03 87° ESE 18:19:24 37° NNE
H-2A R/B 2.3 18:12:45 10° S 18:17:41 64° WSW 18:22:48 10° NNW
Meteor 1-21 Rocket 4.1 18:14:01 10° SSW 18:19:33 87° W 18:25:09 10° NNE
Aureole 2 Rocket 3.7 18:17:24 10° SW 18:19:28 34° WSW 18:19:28 34° WSW
ATLAS 2AS CENTAUR R/B 4.0 18:14:01 10° W 18:21:13 36° NNW 18:25:31 21° NNE
Cosmos 2195 Rocket 4.4 18:15:16 10° S 18:21:34 74° E 18:27:54 10° NNE
Cosmos 158 Rocket 4.5 18:16:29 10° NNW 18:21:45 62° WSW 18:27:02 10° S
Meteor 2-8 Rocket 4.3 18:15:52 10° N 18:22:00 82° E 18:28:07 10° SSE
Meteor 2-15 4.4 18:16:34 10° N 18:22:40 61° ENE 18:24:42 41° SE
Cosmos 1680 Rocket 3.5 18:18:31 10° NNW 18:23:48 82° WSW 18:26:36 28° SSE
Cosmos 1898 Rocket 4.3 18:20:15 10° S 18:23:42 37° SSE 18:23:42 37° SSE
Cosmos 1627 Rocket 4.3 18:25:16 10° S 18:31:25 77° E 18:37:42 10° NNE
Cosmos 2098 Rocket 4.2 18:25:46 10° S 18:32:48 66° E 18:40:10 10° NNE
Cosmos 1602 Rocket 4.3 18:28:38 10° S 18:31:34 43° SSW 18:31:34 43° SSW
Cosmos 1818 3.5 18:28:40 10° SW 18:34:07 84° NW 18:34:53 67° NNE
YAOGAN 1 4.1 18:31:49 10° SSW 18:35:48 36° W 18:39:50 10° NNW
Cosmos 1428 Rocket 4.3 18:30:10 10° S 18:36:26 78° E 18:42:46 10° NNE
CSL-04 Rocket 4.0 18:34:11 10° S 18:39:31 63° WSW 18:45:00 10° NNW
Helios 1A Rocket 4.4 18:36:49 10° SSW 18:40:40 37° W 18:44:34 10° NNW
USA 234 3.2 18:40:19 60° ENE 18:41:23 71° NNE 18:47:55 10° WNW
Iridium 4 Rocket 3.9 18:40:05 10° N 18:45:48 67° W 18:51:06 10° S
Cosmos 1092 Rocket 4.1 18:40:26 10° SSW 18:46:36 71° W 18:52:47 10° N
ATLAS 5 CENTAUR R/B 3.4 18:43:40 10° WNW 18:47:17 24° NNW 18:47:38 24° NNW
Cosmos 1812 Rocket 4.3 18:44:43 10° NNW 18:48:54 51° W 18:48:54 51° W
Meteor 2-15 Rocket 4.4 18:45:42 10° N 18:51:11 69° NNE 18:51:11 69° NNE
Cosmos 2344 4.2 18:44:42 10° NW 18:53:48 88° NE 18:59:35 37° SE
SJ 16-02 2.6 18:51:48 10° SW 18:55:56 38° WNW 18:55:59 38° WNW
CZ-4C R/B 3.9 19:00:57 10° WNW 19:05:50 25° N 19:06:30 25° N
Cosmos 2263 Rocket 4.5 19:04:09 10° WNW 19:07:54 18° NNW 19:10:38 13° N
COSMOS 2406 3.8 19:10:27 10° NNW 19:14:49 52° NW 19:14:49 52° NW
Lacrosse 5 3.9 19:20:08 10° WNW 19:23:49 21° SW 19:24:15 20° SW
CZ-2C R/B 3.8 19:27:19 40° WSW 19:27:19 40° WSW 19:31:09 10° SW
COSMOS 2455 4.3 19:31:29 10° W 19:36:44 30° NW 19:37:13 30° NNW
Cosmos 1833 Rocket 4.1 19:33:18 10° NW 19:36:25 33° NW 19:36:25 33° NW
USA 281 4.3 19:43:33 36° NNW 19:43:33 36° NNW 19:47:12 10° NNW
Cosmos 2082 Rocket 3.9 19:35:29 10° NNW 19:37:48 25° NNW 19:37:48 25° NNW
USA 267 4.4 19:51:34 34° SW 19:51:34 34° SW 19:54:59 10° SW
USA 229 DEB 4.4 19:42:38 10° NW 19:49:18 53° WSW 19:49:18 53° WSW
USA 229 4.4 19:42:44 10° NW 19:49:21 54° WSW 19:49:21 54° WSW
ATLAS 2AS CENTAUR R/B 4.4 20:07:42 10° NW 20:12:56 28° NNW 20:12:56 28° NNW
